EN

Hourly Weather Karjat

Today, 3 December, Thursday

Time Temperature Precipitation Wind Pressure Humidity
00:00 +25°C° 0 mm 1 mps 749 mmHg 51%
01:00 +25°C° 0 mm 1 mps 749 mmHg 50%
02:00 +25°C° 0 mm 1 mps 749 mmHg 50%
03:00 +24°C° 0 mm 1 mps 749 mmHg 50%
04:00 +24°C° 0 mm 2 mps 749 mmHg 49%
05:00 +24°C° 0 mm 1 mps 749 mmHg 49%
06:00 +25°C° 0 mm 2 mps 750 mmHg 48%
07:00 +26°C° 0 mm 2 mps 750 mmHg 47%
08:00 +27°C° 0 mm 2 mps 751 mmHg 47%
09:00 +29°C° 0 mm 2 mps 751 mmHg 42%
10:00 +31°C° 0 mm 2 mps 751 mmHg 37%
11:00 +34°C° 0 mm 2 mps 751 mmHg 32%
12:00 +35°C° 0 mm 2 mps 750 mmHg 30%
13:00 +35°C° 0 mm 2 mps 750 mmHg 28%
14:00 +35°C° 0 mm 1 mps 749 mmHg 27%
15:00 +33°C° 0 mm 1 mps 749 mmHg 31%
16:00 +32°C° 0 mm 1 mps 749 mmHg 36%
17:00 +30°C° 0 mm 1 mps 748 mmHg 41%
18:00 +29°C° 0 mm 1 mps 749 mmHg 44%
19:00 +28°C° 0 mm 1 mps 750 mmHg 48%
20:00 +24°C° 0 mm 0 mps 750 mmHg 51%
21:00 +24°C° 0 mm 0 mps 750 mmHg 52%
22:00 +26°C° 0 mm 1 mps 750 mmHg 52%
23:00 +25°C° 0 mm 1 mps 750 mmHg 52%

Tomorrow, 4 December, Friday

Time Temperature Precipitation Wind Pressure Humidity
00:00 +25°C° 0 mm 1 mps 749 mmHg 52%
01:00 +25°C° 0 mm 1 mps 749 mmHg 51%
02:00 +24°C° 0 mm 1 mps 748 mmHg 51%
03:00 +24°C° 0 mm 1 mps 748 mmHg 50%
04:00 +24°C° 0 mm 1 mps 748 mmHg 50%
05:00 +23°C° 0 mm 1 mps 748 mmHg 49%
06:00 +24°C° 0 mm 1 mps 749 mmHg 48%
07:00 +25°C° 0 mm 2 mps 749 mmHg 46%
08:00 +26°C° 0 mm 2 mps 750 mmHg 44%
09:00 +29°C° 0 mm 2 mps 750 mmHg 39%
10:00 +31°C° 0 mm 2 mps 750 mmHg 34%
11:00 +34°C° 0 mm 3 mps 750 mmHg 28%
12:00 +35°C° 0 mm 2 mps 749 mmHg 27%
13:00 +35°C° 0 mm 2 mps 749 mmHg 26%
14:00 +36°C° 0 mm 2 mps 748 mmHg 25%
15:00 +35°C° 0 mm 2 mps 748 mmHg 28%
16:00 +32°C° 0 mm 1 mps 748 mmHg 32%
17:00 +31°C° 0 mm 1 mps 748 mmHg 36%
18:00 +29°C° 0 mm 1 mps 748 mmHg 39%
19:00 +28°C° 0 mm 1 mps 748 mmHg 43%
20:00 +26°C° 0 mm 1 mps 749 mmHg 46%
21:00 +26°C° 0 mm 1 mps 749 mmHg 46%
22:00 +25°C° 0 mm 1 mps 749 mmHg 46%
23:00 +25°C° 0 mm 1 mps 749 mmHg 46%

Day after tomorrow, 5 December, Saturday

Time Temperature Precipitation Wind Pressure Humidity
00:00 +25°C° 0 mm 1 mps 749 mmHg 45%
01:00 +24°C° 0 mm 1 mps 749 mmHg 43%
02:00 +24°C° 0 mm 1 mps 748 mmHg 42%
03:00 +24°C° 0 mm 1 mps 748 mmHg 41%
04:00 +23°C° 0 mm 2 mps 748 mmHg 40%
05:00 +23°C° 0 mm 2 mps 748 mmHg 39%
06:00 +24°C° 0 mm 2 mps 749 mmHg 39%
07:00 +25°C° 0 mm 2 mps 750 mmHg 39%
08:00 +26°C° 0 mm 2 mps 750 mmHg 39%
09:00 +28°C° 0 mm 2 mps 750 mmHg 36%
10:00 +31°C° 0 mm 2 mps 750 mmHg 32%
11:00 +34°C° 0 mm 2 mps 750 mmHg 28%
12:00 +35°C° 0 mm 2 mps 749 mmHg 27%
13:00 +35°C° 0 mm 2 mps 748 mmHg 25%
14:00 +36°C° 0 mm 2 mps 748 mmHg 23%
15:00 +35°C° 0 mm 2 mps 748 mmHg 27%
16:00 +32°C° 0 mm 1 mps 747 mmHg 30%
17:00 +31°C° 0 mm 1 mps 747 mmHg 33%
18:00 +29°C° 0 mm 1 mps 748 mmHg 35%
19:00 +28°C° 0 mm 1 mps 749 mmHg 37%
20:00 +26°C° 0 mm 1 mps 749 mmHg 39%
21:00 +26°C° 0 mm 1 mps 749 mmHg 39%
22:00 +25°C° 0 mm 1 mps 749 mmHg 39%
23:00 +25°C° 0 mm 2 mps 750 mmHg 39%

6 December, Sunday

Time Temperature Precipitation Wind Pressure Humidity
00:00 +24°C° 0 mm 2 mps 749 mmHg 38%
01:00 +24°C° 0 mm 2 mps 749 mmHg 37%
02:00 +24°C° 0 mm 2 mps 749 mmHg 36%
03:00 +23°C° 0 mm 2 mps 749 mmHg 37%
04:00 +23°C° 0 mm 2 mps 749 mmHg 37%
05:00 +23°C° 0 mm 2 mps 749 mmHg 38%
06:00 +24°C° 0 mm 2 mps 750 mmHg 38%
07:00 +25°C° 0 mm 2 mps 751 mmHg 39%
08:00 +26°C° 0 mm 2 mps 751 mmHg 39%
09:00 +28°C° 0 mm 3 mps 751 mmHg 36%
10:00 +30°C° 0 mm 3 mps 751 mmHg 33%
11:00 +33°C° 0 mm 3 mps 751 mmHg 30%
12:00 +34°C° 0 mm 3 mps 751 mmHg 29%
13:00 +35°C° 0 mm 3 mps 750 mmHg 27%
14:00 +36°C° 0 mm 3 mps 749 mmHg 26%
15:00 +35°C° 0 mm 2 mps 749 mmHg 29%
16:00 +32°C° 0 mm 2 mps 749 mmHg 32%
17:00 +31°C° 0 mm 1 mps 749 mmHg 35%
18:00 +30°C° 0 mm 1 mps 749 mmHg 36%
19:00 +28°C° 0 mm 1 mps 750 mmHg 36%
20:00 +27°C° 0 mm 2 mps 750 mmHg 36%
21:00 +26°C° 0 mm 2 mps 751 mmHg 36%
22:00 +26°C° 0 mm 2 mps 751 mmHg 35%
23:00 +25°C° 0 mm 2 mps 751 mmHg 35%

7 December, Monday

Time Temperature Precipitation Wind Pressure Humidity
00:00 +25°C° 0 mm 2 mps 750 mmHg 37%
01:00 +24°C° 0 mm 2 mps 750 mmHg 38%
02:00 +24°C° 0 mm 2 mps 750 mmHg 40%
03:00 +23°C° 0 mm 2 mps 750 mmHg 42%
04:00 +23°C° 0 mm 2 mps 750 mmHg 43%
05:00 +23°C° 0 mm 2 mps 750 mmHg 45%
06:00 +23°C° 0 mm 2 mps 751 mmHg 45%
07:00 +24°C° 0 mm 2 mps 751 mmHg 45%
08:00 +25°C° 0 mm 2 mps 752 mmHg 46%
09:00 +27°C° 0 mm 3 mps 752 mmHg 42%
10:00 +30°C° 0 mm 3 mps 752 mmHg 38%
11:00 +33°C° 0 mm 4 mps 752 mmHg 34%
12:00 +34°C° 0 mm 4 mps 752 mmHg 31%
13:00 +35°C° 0 mm 4 mps 751 mmHg 29%
14:00 +36°C° 0 mm 3 mps 750 mmHg 26%
15:00 +35°C° 0 mm 3 mps 750 mmHg 29%
16:00 +32°C° 0 mm 2 mps 750 mmHg 33%
17:00 +31°C° 0 mm 1 mps 750 mmHg 36%
18:00 +29°C° 0 mm 1 mps 751 mmHg 37%
19:00 +28°C° 0 mm 1 mps 751 mmHg 38%
20:00 +27°C° 0 mm 1 mps 752 mmHg 38%
21:00 +26°C° 0 mm 1 mps 752 mmHg 39%
22:00 +26°C° 0 mm 2 mps 752 mmHg 39%
23:00 +25°C° 0 mm 2 mps 752 mmHg 39%

8 December, Tuesday

Time Temperature Precipitation Wind Pressure Humidity
00:00 +25°C° 0 mm 2 mps 751 mmHg 40%
01:00 +24°C° 0 mm 2 mps 751 mmHg 41%
02:00 +24°C° 0 mm 2 mps 751 mmHg 42%
03:00 +23°C° 0 mm 2 mps 751 mmHg 43%
04:00 +23°C° 0 mm 2 mps 751 mmHg 45%
05:00 +23°C° 0 mm 2 mps 751 mmHg 46%
06:00 +24°C° 0 mm 3 mps 751 mmHg 46%
07:00 +24°C° 0 mm 3 mps 752 mmHg 46%
08:00 +25°C° 0 mm 3 mps 752 mmHg 46%
09:00 +28°C° 0 mm 3 mps 752 mmHg 40%
10:00 +30°C° 0 mm 3 mps 752 mmHg 35%
11:00 +34°C° 0 mm 4 mps 752 mmHg 29%
12:00 +35°C° 0 mm 4 mps 751 mmHg 27%
13:00 +36°C° 0 mm 4 mps 751 mmHg 25%
14:00 +37°C° 0 mm 4 mps 750 mmHg 23%
15:00 +35°C° 0 mm 3 mps 750 mmHg 26%
16:00 +34°C° 0 mm 2 mps 750 mmHg 29%
17:00 +31°C° 0 mm 1 mps 750 mmHg 32%
18:00 +30°C° 0 mm 1 mps 750 mmHg 34%
19:00 +28°C° 0 mm 1 mps 751 mmHg 36%
20:00 +26°C° 0 mm 1 mps 751 mmHg 38%
21:00 +26°C° 0 mm 1 mps 751 mmHg 39%
22:00 +26°C° 0 mm 1 mps 751 mmHg 40%
23:00 +25°C° 0 mm 1 mps 751 mmHg 41%
Show more